This is the latest recevied weather packets stored in our database for station/object KC4JES. If no packets are shown the sender has not sent any weather packets the latest 10 day(s).
| Time | Temp. | Humidity | Pressure | Rain* | Wind** | Luminosity | Snow |
|---|---|---|---|---|---|---|---|
| 1777552260 | 23.33° C | 86% | 1011.6 hPa | 0 mm | - | 69 W/m² | - |
| 1777551956 | 23.33° C | 87% | 1011.8 hPa | 0 mm | - | 48 W/m² | - |
| 1777551654 | 23.33° C | 87% | 1011.7 hPa | 0 mm | - | 54 W/m² | - |
| 1777551352 | 22.78° C | 87% | 1011.7 hPa | 0 mm | - | 54 W/m² | - |
| 1777551048 | 22.78° C | 87% | 1011.7 hPa | 0 mm | - | 51 W/m² | - |
| 1777550744 | 22.78° C | 87% | 1011.9 hPa | 0 mm | - | 45 W/m² | - |
| 1777550441 | 22.78° C | 87% | 1011.6 hPa | 0 mm | - | 43 W/m² | - |
| 1777550137 | 22.78° C | 87% | 1011.7 hPa | 0 mm | - | 44 W/m² | - |
| 1777549833 | 22.78° C | 88% | 1011.9 hPa | 0 mm | - | 41 W/m² | - |
| 1777549530 | 22.22° C | 88% | 1011.8 hPa | 0 mm | - | 39 W/m² | - |
| 1777549226 | 22.22° C | 88% | 1011.8 hPa | 0 mm | - | 35 W/m² | - |
| 1777548923 | 22.22° C | 88% | 1012.1 hPa | 0 mm | - | 28 W/m² | - |
| 1777548620 | 22.22° C | 88% | 1012 hPa | 0 mm | - | 22 W/m² | - |
| 1777548317 | 22.22° C | 88% | 1011.6 hPa | 0 mm | - | 16 W/m² | - |
| 1777548015 | 22.22° C | 88% | 1011.6 hPa | 0 mm | - | 15 W/m² | - |
| 1777547709 | 21.67° C | 88% | 1011.7 hPa | 0 mm | - | 14 W/m² | - |
| 1777547406 | 21.67° C | 88% | 1011.1 hPa | 0 mm | - | 12 W/m² | - |
| 1777547103 | 21.67° C | 88% | 1011.1 hPa | 0 mm | - | 9 W/m² | - |
| 1777546800 | 21.67° C | 88% | 1011 hPa | 0 mm | - | 7 W/m² | - |
| 1777546497 | 21.67° C | 87% | 1011 hPa | 0 mm | - | 4 W/m² | - |
| 1777546194 | 21.67° C | 87% | 1010.8 hPa | 0 mm | - | 2 W/m² | - |
| 1777545891 | 21.67° C | 87% | 1010.9 hPa | 0 mm | - | 1 W/m² | - |
| 1777545588 | 22.22° C | 87% | 1010.8 hPa | 0 mm | - | 1 W/m² | - |
| 1777545284 | 22.22° C | 86% | 1010.8 hPa | 0 mm | - | 0 W/m² | - |
| 1777544982 | 22.22° C | 86% | 1010.4 hPa | 0 mm | - | 0 W/m² | - |
* Rain latest hour (hover to see other rain measurements)
** Current wind speed in m/s (hover to see current wind gust speed)